Kelso-Longview, WA
on Thursday, November 8, 2012

Thursday
Previous Day Next Day
Daily Summary
 ActualAverage (KSPB)Record (KSPB)
Temperature
Mean Temperature °F / °C °F / °C  
Max Temperature 48°F / 9°C °F / °C 57°F / 13°C (1999)
Min Temperature 33°F / 1°C °F / °C 30°F / -1°C (2001)
Degree Days
Heating Degree Days 24    
Month to date heating degree days  
Since 1 July heating degree days  
Cooling Degree Days 0    
Month to date cooling degree days  
Year to date cooling degree days  
Moisture
Dew Point 35°F / 2°C   
Average Humidity 83    
Maximum Humidity 93    
Minimum Humidity 66    
Precipitation
Precipitation 0.00 in / 0.00 cm in / cm 0.44 in / 1.12 cm (2000)
Month to date precipitation  
Year to date precipitation  
Wind
Wind Speed 2 mph / 3 km/h   
Max Wind Speed 12 mph / 19 km/h   
Max Gust Speed mph / km/h   
Visibility 9 miles / 14 kilometers   
Events     

Key: T is trace of precipitation, MM is missing value
Source: NWS Daily Summary
Time(PST)TemperatureDew PointHumidity Pressure Visibility Wind DirectionWind SpeedGust SpeedPrecipitationEvents Conditions
12:15 AM 39.2°F / 4.0°C 35.6°F / 2.0°C 87% 29.94 in / 1013.8 hPa 10.0 miles / 16.1 kilometers Calm Calm - N/A   Mostly Cloudy
12:35 AM 39.2°F / 4.0°C 37.4°F / 3.0°C 93% 29.93 in / 1013.4 hPa 10.0 miles / 16.1 kilometers Calm Calm - N/A   Overcast
12:55 AM 41.0°F / 5.0°C 37.4°F / 3.0°C 87% 29.92 in / 1013.1 hPa 10.0 miles / 16.1 kilometers Calm Calm - N/A   Overcast
1:15 AM 39.2°F / 4.0°C 37.4°F / 3.0°C 93% 29.91 in / 1012.8 hPa 10.0 miles / 16.1 kilometers Calm Calm - N/A   Overcast
1:35 AM 39.2°F / 4.0°C 37.4°F / 3.0°C 93% 29.90 in / 1012.4 hPa 10.0 miles / 16.1 kilometers Calm Calm - N/A   Overcast
1:55 AM 39.2°F / 4.0°C 35.6°F / 2.0°C 87% 29.89 in / 1012.1 hPa 10.0 miles / 16.1 kilometers Calm Calm - N/A   Scattered Clouds
2:15 AM 37.4°F / 3.0°C 33.8°F / 1.0°C 87% 29.89 in / 1012.1 hPa 10.0 miles / 16.1 kilometers NW 3.5 mph / 5.6 km/h - N/A   Partly Cloudy
2:35 AM 37.4°F / 3.0°C 35.6°F / 2.0°C 93% 29.89 in / 1012.1 hPa 1.2 miles / 2.0 kilometers Calm Calm - N/A   Mostly Cloudy
2:55 AM 37.4°F / 3.0°C 33.8°F / 1.0°C 87% 29.88 in / 1011.7 hPa 1.5 miles / 2.4 kilometers NNW 3.5 mph / 5.6 km/h - N/A   Overcast
3:15 AM 37.4°F / 3.0°C 35.6°F / 2.0°C 93% 29.87 in / 1011.4 hPa 10.0 miles / 16.1 kilometers Calm Calm - N/A   Overcast
3:35 AM 39.2°F / 4.0°C 35.6°F / 2.0°C 87% 29.87 in / 1011.4 hPa 10.0 miles / 16.1 kilometers Calm Calm - N/A   Overcast
3:55 AM 39.2°F / 4.0°C 35.6°F / 2.0°C 87% 29.86 in / 1011.1 hPa 10.0 miles / 16.1 kilometers Calm Calm - N/A   Overcast
4:15 AM 39.2°F / 4.0°C 37.4°F / 3.0°C 93% 29.86 in / 1011.1 hPa 10.0 miles / 16.1 kilometers NNW 3.5 mph / 5.6 km/h - N/A   Overcast
4:35 AM 39.2°F / 4.0°C 35.6°F / 2.0°C 87% 29.85 in / 1010.7 hPa 10.0 miles / 16.1 kilometers NNW 4.6 mph / 7.4 km/h - N/A   Overcast
4:55 AM 39.2°F / 4.0°C 35.6°F / 2.0°C 87% 29.85 in / 1010.7 hPa 10.0 miles / 16.1 kilometers North 5.8 mph / 9.3 km/h - N/A   Overcast
5:15 AM 39.2°F / 4.0°C 35.6°F / 2.0°C 87% 29.85 in / 1010.7 hPa 10.0 miles / 16.1 kilometers Calm Calm - N/A   Overcast
5:35 AM 39.2°F / 4.0°C 35.6°F / 2.0°C 87% 29.84 in / 1010.4 hPa 10.0 miles / 16.1 kilometers North 4.6 mph / 7.4 km/h - N/A   Overcast
5:55 AM 37.4°F / 3.0°C 35.6°F / 2.0°C 93% 29.84 in / 1010.4 hPa 10.0 miles / 16.1 kilometers NNW 3.5 mph / 5.6 km/h - N/A   Overcast
6:15 AM 37.4°F / 3.0°C 35.6°F / 2.0°C 93% 29.83 in / 1010.0 hPa 2.0 miles / 3.2 kilometers NNW 4.6 mph / 7.4 km/h - N/A   Overcast
6:35 AM 37.4°F / 3.0°C 35.6°F / 2.0°C 93% 29.83 in / 1010.0 hPa 1.5 miles / 2.4 kilometers NNW 6.9 mph / 11.1 km/h - N/A   Overcast
6:55 AM 37.4°F / 3.0°C 33.8°F / 1.0°C 87% 29.83 in / 1010.0 hPa 2.0 miles / 3.2 kilometers North 6.9 mph / 11.1 km/h - N/A   Overcast
7:15 AM 37.4°F / 3.0°C 33.8°F / 1.0°C 87% 29.83 in / 1010.0 hPa 3.0 miles / 4.8 kilometers NNE 4.6 mph / 7.4 km/h - N/A   Overcast
7:35 AM 37.4°F / 3.0°C 33.8°F / 1.0°C 87% 29.83 in / 1010.0 hPa 8.0 miles / 12.9 kilometers NNW 4.6 mph / 7.4 km/h - N/A   Overcast
7:55 AM 37.4°F / 3.0°C 33.8°F / 1.0°C 87% 29.83 in / 1010.0 hPa 10.0 miles / 16.1 kilometers North 4.6 mph / 7.4 km/h - N/A   Overcast
8:15 AM 37.4°F / 3.0°C 33.8°F / 1.0°C 87% 29.82 in / 1009.7 hPa 10.0 miles / 16.1 kilometers North 4.6 mph / 7.4 km/h - N/A   Overcast
8:35 AM 37.4°F / 3.0°C 33.8°F / 1.0°C 87% 29.82 in / 1009.7 hPa 10.0 miles / 16.1 kilometers NNW 4.6 mph / 7.4 km/h - N/A   Overcast
8:55 AM 37.4°F / 3.0°C 33.8°F / 1.0°C 87% 29.82 in / 1009.7 hPa 10.0 miles / 16.1 kilometers North 4.6 mph / 7.4 km/h - N/A   Overcast
9:15 AM 37.4°F / 3.0°C 33.8°F / 1.0°C 87% 29.81 in / 1009.4 hPa 10.0 miles / 16.1 kilometers NNW 3.5 mph / 5.6 km/h - N/A   Overcast
9:35 AM 39.2°F / 4.0°C 35.6°F / 2.0°C 87% 29.81 in / 1009.4 hPa 10.0 miles / 16.1 kilometers NW 3.5 mph / 5.6 km/h - N/A   Mostly Cloudy
9:55 AM 39.2°F / 4.0°C 35.6°F / 2.0°C 87% 29.80 in / 1009.0 hPa 10.0 miles / 16.1 kilometers WNW 3.5 mph / 5.6 km/h - N/A   Scattered Clouds
10:15 AM 41.0°F / 5.0°C 35.6°F / 2.0°C 81% 29.81 in / 1009.4 hPa 10.0 miles / 16.1 kilometers NNW 6.9 mph / 11.1 km/h - N/A   Clear
10:35 AM 42.8°F / 6.0°C 35.6°F / 2.0°C 76% 29.81 in / 1009.4 hPa 10.0 miles / 16.1 kilometers NW 4.6 mph / 7.4 km/h - N/A   Clear
10:55 AM 42.8°F / 6.0°C 35.6°F / 2.0°C 76% 29.81 in / 1009.4 hPa 10.0 miles / 16.1 kilometers NNW 9.2 mph / 14.8 km/h - N/A   Clear
11:15 AM 44.6°F / 7.0°C 35.6°F / 2.0°C 71% 29.80 in / 1009.0 hPa 10.0 miles / 16.1 kilometers North 9.2 mph / 14.8 km/h - N/A   Partly Cloudy
11:35 AM 44.6°F / 7.0°C 35.6°F / 2.0°C 71% 29.80 in / 1009.0 hPa 10.0 miles / 16.1 kilometers NNW 11.5 mph / 18.5 km/h - N/A   Clear
11:55 AM 46.4°F / 8.0°C 35.6°F / 2.0°C 66% 29.80 in / 1009.0 hPa 10.0 miles / 16.1 kilometers NNW 9.2 mph / 14.8 km/h - N/A   Clear
12:15 PM 44.6°F / 7.0°C 35.6°F / 2.0°C 71% 29.79 in / 1008.7 hPa 10.0 miles / 16.1 kilometers NNW 10.4 mph / 16.7 km/h - N/A   Clear
12:35 PM 44.6°F / 7.0°C 35.6°F / 2.0°C 71% 29.79 in / 1008.7 hPa 10.0 miles / 16.1 kilometers NNW 9.2 mph / 14.8 km/h - N/A   Clear
12:55 PM 44.6°F / 7.0°C 35.6°F / 2.0°C 71% 29.79 in / 1008.7 hPa 10.0 miles / 16.1 kilometers North 9.2 mph / 14.8 km/h - N/A   Clear
1:15 PM 44.6°F / 7.0°C 35.6°F / 2.0°C 71% 29.80 in / 1009.0 hPa 10.0 miles / 16.1 kilometers North 5.8 mph / 9.3 km/h - N/A   Clear
1:35 PM 44.6°F / 7.0°C 35.6°F / 2.0°C 71% 29.79 in / 1008.7 hPa 10.0 miles / 16.1 kilometers NNW 8.1 mph / 13.0 km/h - N/A   Clear
1:55 PM 46.4°F / 8.0°C 35.6°F / 2.0°C 66% 29.79 in / 1008.7 hPa 10.0 miles / 16.1 kilometers NNE 4.6 mph / 7.4 km/h - N/A   Clear
2:15 PM 46.4°F / 8.0°C 37.4°F / 3.0°C 71% 29.78 in / 1008.4 hPa 10.0 miles / 16.1 kilometers NNW 5.8 mph / 9.3 km/h - N/A   Clear
2:35 PM 48.2°F / 9.0°C 37.4°F / 3.0°C 66% 29.79 in / 1008.7 hPa 10.0 miles / 16.1 kilometers North 3.5 mph / 5.6 km/h - N/A   Clear
2:55 PM 48.2°F / 9.0°C 37.4°F / 3.0°C 66% 29.79 in / 1008.7 hPa 10.0 miles / 16.1 kilometers North 3.5 mph / 5.6 km/h - N/A   Clear
3:15 PM 48.2°F / 9.0°C 37.4°F / 3.0°C 66% 29.79 in / 1008.7 hPa 10.0 miles / 16.1 kilometers NW 3.5 mph / 5.6 km/h - N/A   Clear
3:35 PM 48.2°F / 9.0°C 37.4°F / 3.0°C 66% 29.79 in / 1008.7 hPa 10.0 miles / 16.1 kilometers NW 3.5 mph / 5.6 km/h - N/A   Clear
3:55 PM 46.4°F / 8.0°C 37.4°F / 3.0°C 71% 29.79 in / 1008.7 hPa 10.0 miles / 16.1 kilometers Calm Calm - N/A   Clear
4:15 PM 46.4°F / 8.0°C 39.2°F / 4.0°C 76% 29.79 in / 1008.7 hPa 10.0 miles / 16.1 kilometers NNW 3.5 mph / 5.6 km/h - N/A   Clear
4:35 PM 46.4°F / 8.0°C 37.4°F / 3.0°C 71% 29.79 in / 1008.7 hPa 10.0 miles / 16.1 kilometers NW 3.5 mph / 5.6 km/h - N/A   Clear
4:55 PM 46.4°F / 8.0°C 37.4°F / 3.0°C 71% 29.79 in / 1008.7 hPa 10.0 miles / 16.1 kilometers Calm Calm - N/A   Clear
5:15 PM 44.6°F / 7.0°C 37.4°F / 3.0°C 76% 29.80 in / 1009.0 hPa 10.0 miles / 16.1 kilometers Calm Calm - N/A   Clear
5:35 PM 42.8°F / 6.0°C 37.4°F / 3.0°C 81% 29.80 in / 1009.0 hPa 10.0 miles / 16.1 kilometers Calm Calm - N/A   Clear
5:55 PM 42.8°F / 6.0°C 37.4°F / 3.0°C 81% 29.80 in / 1009.0 hPa 10.0 miles / 16.1 kilometers Calm Calm - N/A   Clear
6:15 PM 39.2°F / 4.0°C 35.6°F / 2.0°C 87% 29.81 in / 1009.4 hPa 10.0 miles / 16.1 kilometers Calm Calm - N/A   Clear
6:35 PM 39.2°F / 4.0°C 35.6°F / 2.0°C 87% 29.81 in / 1009.4 hPa 10.0 miles / 16.1 kilometers Calm Calm - N/A   Clear
6:55 PM 39.2°F / 4.0°C 35.6°F / 2.0°C 87% 29.82 in / 1009.7 hPa 10.0 miles / 16.1 kilometers Calm Calm - N/A   Clear
7:15 PM 39.2°F / 4.0°C 35.6°F / 2.0°C 87% 29.82 in / 1009.7 hPa 10.0 miles / 16.1 kilometers Calm Calm - N/A   Clear
7:35 PM 37.4°F / 3.0°C 33.8°F / 1.0°C 87% 29.82 in / 1009.7 hPa 10.0 miles / 16.1 kilometers Calm Calm - N/A   Clear
7:55 PM 37.4°F / 3.0°C 35.6°F / 2.0°C 93% 29.82 in / 1009.7 hPa 10.0 miles / 16.1 kilometers Calm Calm - N/A   Clear
8:15 PM 37.4°F / 3.0°C 33.8°F / 1.0°C 87% 29.83 in / 1010.0 hPa 10.0 miles / 16.1 kilometers Calm Calm - N/A   Clear
8:35 PM 35.6°F / 2.0°C 30.2°F / -1.0°C 81% 29.83 in / 1010.0 hPa 10.0 miles / 16.1 kilometers Calm Calm - N/A   Clear
8:55 PM 35.6°F / 2.0°C 33.8°F / 1.0°C 93% 29.84 in / 1010.4 hPa 10.0 miles / 16.1 kilometers Calm Calm - N/A   Clear
9:15 PM 35.6°F / 2.0°C 32.0°F / 0.0°C 87% 29.84 in / 1010.4 hPa 8.0 miles / 12.9 kilometers Calm Calm - N/A   Clear
9:35 PM 35.6°F / 2.0°C 32.0°F / 0.0°C 87% 29.84 in / 1010.4 hPa 7.0 miles / 11.3 kilometers Calm Calm - N/A   Clear
9:55 PM 33.8°F / 1.0°C 30.2°F / -1.0°C 87% 29.84 in / 1010.4 hPa 5.0 miles / 8.0 kilometers Calm Calm - N/A   Clear
10:15 PM 33.8°F / 1.0°C 30.2°F / -1.0°C 87% 29.84 in / 1010.4 hPa 6.0 miles / 9.7 kilometers Calm Calm - N/A   Clear
10:35 PM 33.8°F / 1.0°C 30.2°F / -1.0°C 87% 29.84 in / 1010.4 hPa 9.0 miles / 14.5 kilometers Calm Calm - N/A   Clear
10:55 PM 33.8°F / 1.0°C 30.2°F / -1.0°C 87% 29.84 in / 1010.4 hPa 8.0 miles / 12.9 kilometers Calm Calm - N/A   Clear
11:15 PM 33.8°F / 1.0°C 30.2°F / -1.0°C 87% 29.85 in / 1010.7 hPa 9.0 miles / 14.5 kilometers Calm Calm - N/A   Clear
11:35 PM 33.8°F / 1.0°C 28.4°F / -2.0°C 81% 29.86 in / 1011.1 hPa 8.0 miles / 12.9 kilometers Calm Calm - N/A   Clear
11:55 PM 33.8°F / 1.0°C 30.2°F / -1.0°C 87% 29.86 in / 1011.1 hPa 10.0 miles / 16.1 kilometers Calm Calm - N/A   Scattered Clouds
Moon Phase
Nov. 08 Nov. 13 Nov. 20 Nov. 28 Dec. 06
Sunrise:07:03 AM (PST) Moon Rise:12:45 AM (PST)11/8
Sunset:04:46 PM (PST) Moon Set:01:47 PM (PST)11/8

Copyright © 2014 The Weather Underground, Inc.